Location: Bogis-Bossey
(46.3500°N, 6.1667°E)
Time: 19:12:16
(UTC+00:00)

MetOp-B - Pass Details

Date: 17 August 2022
Orbit: 819 x 821 km, 98.7° (Epoch: 01 October)

Event Time Altitude Azimuth Distance (km) Brightness Sun altitude
Exits shadow 20:35:40 20° 174° (S) 1,799 5.5 -17.6°
Maximum altitude 20:39:24 74° 257° (WSW) 859 4.3 -18.1°
Drops below altitude 10° 20:44:47 10° 342° (NNW) 2,430 7.5 -18.7°
Sets 20:47:09 0° 345° (NNW) 3,367 8.4 -19.0°
